Simultaneous Nadir Overpasses (SNOs) Predictions

Prediction of SNOs between AQUA and METOP-B Satellite Orbit:

Table of predicted SNOs for the next 14.0 days since TLE Epoch: 6/7/2019
Index Date (AQUA) Time (AQUA) Lat,Lon (AQUA) SZA (AQUA ) Date (METOP-B) Time (METOP-B) Lat,Lon (METOP-B) SZA (METOP-B ) Distance(km) Time Diff (sec)
1 06/08/2019 17:59:14 73.83, -95.54 50.96 06/08/2019 17:58:05 73.81, -95.52 50.95 2.91 69
2 06/08/2019 18:48:40 -73.86, 72.05 129.02 06/08/2019 18:48:46 -73.86, 71.95 129.01 3.27 6
3 06/08/2019 19:38:10 73.98,-120.60 51.12 06/08/2019 19:39:23 73.98,-120.42 51.11 5.30 73
4 06/11/2019 13:33:28 73.81, -29.06 50.73 06/11/2019 13:32:28 73.79, -29.14 50.72 3.30 60
5 06/11/2019 14:22:55 -73.88, 138.43 129.21 06/11/2019 14:23:08 -73.90, 138.45 129.19 2.42 13
6 06/11/2019 15:12:30 74.28, -54.83 51.22 06/11/2019 15:13:39 74.32, -53.18 51.20 49.86 69
7 06/14/2019 09:07:42 73.80, 37.41 50.55 06/14/2019 09:06:50 73.83, 37.36 50.59 3.41 52
8 06/14/2019 09:57:10 -73.91,-155.20 129.33 06/14/2019 09:57:31 -73.89,-155.17 129.36 2.54 21
9 06/14/2019 10:46:51 74.63, 10.77 51.44 06/14/2019 10:47:56 74.60, 13.96 51.30 94.16 65
10 06/17/2019 04:41:56 73.85, 103.75 50.49 06/17/2019 04:41:11 73.86, 103.85 50.51 3.68 45
11 06/17/2019 05:31:23 -73.90, -88.72 129.46 06/17/2019 05:31:53 -73.88, -88.80 129.48 3.18 30
12 06/20/2019 00:16:10 73.85, 170.19 50.44 06/20/2019 00:15:34 73.85, 170.22 50.45 0.84 36
13 06/20/2019 01:05:37 -73.89, -22.26 129.52 06/20/2019 01:06:15 -73.91, -22.31 129.50 2.97 38




NCC Satellite Simultaneous Nadir Overpasses (SNOs) Prediction Service
